OneWeb SL0309

operational
NORAD ID: 49095 Int'l Des: 2021-075 Owner: ONEWEBN Country: UK Constellation: oneweb
LEOCIRCULARPOLARONEWEB_TYPE

Über OneWeb SL0309

Beschreibung wird geladen...

Live-Position

3D-Globus wird geladen...

Nächste Überflüge

Höhenverlauf

Altitude vs Time

uPlot chart will show altitude changes over time

Zweizeiliger Elementsatz

1 49095U 21075W 25304.29335961 .00000081 00000-0 17423-3 0 9993
2 49095 87.9132 51.3714 0002094 94.1236 266.0135 13.17649289203435
Epoch: 31. Okt. 2025 • Age: 4 hours

Aktueller Status

Höhe 1200.3 km
Geschwindigkeit 7.25 km/s
Subsatellitenpunkt -15.17°S, 148.34°W
Startdatum 21. Aug. 2021
Alter 4.1 years
Typ internet

Technische Details

Klassifizierung Payload
Masse 148.00 kg
Trockenmasse 140.00 kg
Gesamtmasse 148.00 kg
Länge 1.30 m
Durchmesser 1.00 m
Spannweite 5.00 m
Form Trapezoid+2 pan
Hersteller ONEWUS
Bus-Typ ARROW
Phasenstatus In Orbit
Besitzer/Staat ONEWEBN/UK

Große Konstellationen

Loading constellations...